Location: Bogis-Bossey
(46.3500°N, 6.1667°E)
Time: 17:00:29
(UTC+00:00)

Cosmos 1844 Rocket - Pass Details

Date: 17 August 2022
Orbit: 823 x 845 km, 71.0° (Epoch: 01 October)

Event Time Altitude Azimuth Distance (km) Brightness Sun altitude
Rises 20:12:51 0° 212° (SSW) 3,345 5.8 -14.6°
Reaches altitude 10° 20:15:17 10° 215° (SW) 2,417 5.0 -14.9°
Maximum altitude 20:20:48 70° 298° (WNW) 880 3.0 -15.6°
Drops below altitude 10° 20:26:22 10° 23° (NNE) 2,439 5.3 -16.4°
Sets 20:28:50 0° 26° (NNE) 3,379 6.0 -16.7°
